STARLINK-1554, 46055

Orbit data source: Space-Track

STARLINK-1554, 46055 is a payload satellite owned by SpaceX/Seattle (US) in LEO that was launched on Fri, 07 Aug 2020 UTC via an FALCON 9 launch vehicle from the Air Force Eastern Test Range (AFETR). Payload-class satellites include a variety of spacecraft equipped with specific instruments for various scientific and technological missions. These include communications satellites like Starlink; space stations such as the ISS; scientific satellites like the Hubble; Earth observation satellites from companies like Planet Labs, Umbra, and HawkEye 360; GPS; miniature CubeSats for education and research; and military/defense satellites.

Loading next visibility...
Identifier
46055, 2020-055AE
Orbit
LEO
Country
Flag of USUS
Related business
Manufacturer
SpaceX/Seattle
Mission
Operational Commercial Communications
Bus & Motor
STARLINK, Unknown motor
Mass
260 kg wet, ~248 kg dry
Launch date (UTC)
2020-08-07 (5 years ago)
Launch vehicle
FALCON 9
Launch site
Air Force Eastern Test Range (AFETR)
Object type
Payload
Rocket body
Debris
Shape & HBR
Box + 1 Pan, 4.4 m
Radar Cross Section
13.562 m², Large (>1 m²)

Expand to show TLE details & history
Last TLE update: 7 hours ago

TLE from 7 hours ago
0 STARLINK-1554
1 46055U 20055AE  25260.91457257  .00000855  00000-0  76279-4 0  9990
2 46055  53.0533 172.2345 0001336  92.7596 267.3546 15.06397401282995
Epoch: 2025-09-17T21:56Z
TLE epoch observation values (Epoch: 2025-09-17T21:56:59.07Z)
Latitude
0.00001°
Longitude
-154.0953°
Altitude
548.141 km
Speed
7.589 km/s
True Right ascension
11h 28m 56s
True Declination
0° 00' 00"
Sunlit
Object was in daylight at epoch
Visualization orbit readout
Latitude
Unknown
Longitude
Unknown
Altitude
Unknown
Speed
Unknown
Apparent Right ascension
Unknown
Apparent Declination
Unknown
Sunlit
N/A
Visualization observer readout
Local Sidereal Time
22:00:23
Azimuth
Unknown
Elevation
Unknown
Doppler factor
Unknown
Orbital elements
Apogee altitude
548.416 km
Perigee altitude
546.565 km
Semi-major axis
6,925.627 km
Eccentricity
0.00013
Inclination
53.0533°
RAAN
172.2345°
Arg. of periapsis
92.7596°
True anomaly
267.33931°
Mean anomaly
267.3546°
Eccentric anomaly
267.34695°
Mean motion
3.76578 °/min
Orbital period
95.6 mins
BSTAR
0.000076279
Loading maneuver chart data...
Computing Atmospheric mass density...
Loading historical data...
Loading historical data...
Loading historical data...
Loading historical data...
Loading historical data...
Loading historical data...
Loading historical data...

Documentation

Showing up to 5 results
|